Regional Weather Roundup
Issued by NWS

Home | Current Version | Previous Version | Text Only | Print | Product List | Glossary On
Versions: 1 2 3 4 5 6 7 8 9 10 11 12 13 14 15 16 17 18 19 20 21 22 23 24 25 26 27 28 29 30 31 32 33 34 35 36 37 38 39 40 41 42 43 44 45 46 47 48 49 50
000
ASUS42 KKEY 041110
RWRKEY

FLORIDA REGIONAL WEATHER ROUNDUP FOR THE FLORIDA KEYS
NATIONAL WEATHER SERVICE KEY WEST FLORIDA
700 AM EDT SAT JUL 04 2015

...SOUTH FLORIDA AND THE KEYS...

CITY           SKY/WX    TMP DP  RH WIND       PRES   REMARKS
FORT MYERS     CLEAR     73  72  96 E3        30.09R
SW REGIONAL AP CLEAR     72  71  97 NE5       30.10R
NAPLES         PTCLDY    72  72 100 NE6       30.09R
MIAMI          MOCLDY    78  72  81 CALM      30.08R
WEST KENDALL   CLEAR     75  73  93 CALM      30.08R
HOMESTEAD      PTCLDY    80  74  84 E3        30.08R
MARATHON       PTCLDY    84  76  76 SE8       30.06S HX  93
BOCA CHICA NAS PTCLDY    83  75  77 SE9       30.06R HX  90
KEY WEST INTL  PTCLDY    84  77  79 SE9       30.07R HX  94

...INTERNATIONAL WEATHER...

CITY           SKY/WX    TMP DP  RH WIND       PRES   REMARKS
NASSAU BAHAMAS PTCLDY    81  73  78 SE3       30.11R
CANCUN MEXICO  PTCLDY    81  79  94 E6        30.00S
COZUMEL MEXICO MOCLDY    73  73 100 CALM      30.00R

ADJACENT COASTAL WATERS...

STATION/POSITION TIME  SKY/WX   TEMP    WIND        PRES    WAVE
                                AIR SEA DIR/SP/G            HT/PER
                 (UTC)          (F)     (DEG/KT/KT) (MB)    (FT/S)
PULASKI SHOAL LI 1000            85     130/ 15/ 16 1017.5R
SAND KEY         1050            84     120/ 13/ 16 1017.9R
SOMBRERO KEY     1000            83     110/ 11/ 12 1018.5R
LONG KEY         1000            84 87  130/ 10/ 11 1018.5F
MOLASSES REEF    1000            83 85  130/ 11/ 13 1018.1R
FOWEY ROCKS      NOT AVBL

$$


USA.gov is the U.S. government's official web portal to all federal, state and local government web resources and services.